Regional Weather Roundup
Issued by NWS

Home | Current Version | Previous Version | Graphics & Text | Print | Product List | Glossary On
Versions: 1 2 3 4 5 6 7 8 9 10 11 12 13 14 15 16 17 18 19 20 21 22 23 24 25 26 27 28 29 30 31 32 33 34 35 36 37 38 39 40 41 42 43 44 45 46 47 48 49 50
000
ASUS43 KDMX 130003
RWRIA

WEATHER ROUNDUP FOR IOWA
NATIONAL WEATHER SERVICE DES MOINES IA
600 PM CST FRI FEB 12 2016

NOTE: "FAIR" INDICATES FEW OR NO CLOUDS BELOW 12,000 FEET WITH NO
SIGNIFICANT WEATHER AND/OR OBSTRUCTIONS TO VISIBILITY.

* - THESE STATIONS ARE NOT NWS STATIONS...THUS NOT UNDER NWS
QUALITY CONTROL.  THEY ALSO DO NOT REPORT WEATHER SUCH
AS PRECIPITATION OR FOG.

IAZ001>003-012>014-020>022-031>034-043>046-130100-
   NORTHWEST IOWA

CITY           SKY/WX    TMP DP  RH WIND       PRES   REMARKS
CARROLL *      CLOUDY     9   1  72 NW16      30.56R WCI  -9
CHEROKEE *     CLOUDY     7  -3  64 N10       30.58S WCI  -7
DENISON *      CLOUDY     9   1  72 N9        30.55R WCI  -5
LE MARS *      CLOUDY     9   0  66 N13       30.61R WCI  -7
ORANGE CITY *  CLOUDY     7   0  72 N8        30.56S WCI  -6
SHELDON *      CLOUDY     3  -4  72 NW9       30.56S WCI -11
SIOUX CITY     CLOUDY    13   2  61 N12       30.60R WCI  -1
6HR MIN TEMP:  13; 6HR MAX TEMP:  20;

SPENCER        CLOUDY     4  -4  69 N13       30.56R WCI -13
6HR MIN TEMP:   4; 6HR MAX TEMP:  11;

STORM LAKE *   CLEAR      5  -2  72 NW10      30.54S WCI -10
$$

IAZ055>058-069>071-079>083-090>094-130100-
   SOUTHWEST IOWA

CITY           SKY/WX    TMP DP  RH WIND       PRES   REMARKS
ATLANTIC *     CLEAR     12   1  62 N12G17    30.57R WCI  -2
AUDUBON *      CLEAR     10   1  67 NW7       30.55R WCI   0
CLARINDA *     CLEAR     18   7  62 N14G21    30.58S WCI   4
COUNCIL BLFS * PTCLDY    16   5  62 N10       30.57R WCI   3
CRESTON *      CLEAR     12   0  57 NW18      30.54R WCI  -5
HARLAN  *      PTCLDY    10   3  72 N13       30.60S WCI  -5
LAMONI         CLEAR     16   1  51 NW16      30.51R WCI   1
6HR MIN TEMP:  16; 6HR MAX TEMP:  25;

SHENANDOAH *   CLEAR     18   7  62 N17       30.59R WCI   2
$$

IAZ047>049-059>061-072>074-084-130100-
   CENTRAL IOWA

CITY           SKY/WX    TMP DP  RH WIND       PRES   REMARKS
AMES           CLEAR     10   1  67 N16G25    30.54R WCI  -7
6HR MIN TEMP:  10; 6HR MAX TEMP:  16;

ANKENY *       CLEAR     12   1  62 N15G21    30.55R WCI  -4
BOONE *        CLOUDY     9   0  66 N16       30.52R WCI  -9
CHARITON *     CLEAR     14   0  52 NW12G24   30.52R WCI   0
DES MOINES     PTCLDY    13   0  56 NW18      30.54R WCI  -4
6HR MIN TEMP:  13; 6HR MAX TEMP:  20;

GRINNELL*      PTCLDY    10   3  72 NW15      30.50R WCI  -6
KNOXVILLE *    CLEAR     14   0  52 NW18      30.50R WCI  -3
MARSHALLTOWN   CLEAR      9   1  70 NW17      30.51R WCI  -9
6HR MIN TEMP:   9; 6HR MAX TEMP:  16;

NEWTON *       FLURRIES  10   1  67 N20G26    30.52R WCI  -8
PELLA *        CLEAR     13   3  64 N16G23    30.54R WCI  -3
$$

IAZ004>006-015-016-023>025-035-036-130100-
   NORTH CENTRAL IOWA

CITY           SKY/WX    TMP DP  RH WIND       PRES   REMARKS
ALGONA *       CLEAR      7   0  72 N15G22    30.53R WCI -11
CLARION *      CLEAR      7  -2  66 NW17      30.53R WCI -12
ESTHERVILLE    CLOUDY     3  -2  79 NW16      30.55R WCI -16
6HR MIN TEMP:   3; 6HR MAX TEMP:  10;

FORT DODGE *   CLOUDY     7  -6  56 N10G18    30.55S WCI  -8
MASON CITY     CLEAR      6  -3  66 NW16      30.51R WCI -12
6HR MIN TEMP:   5; 6HR MAX TEMP:  12;

FOREST CITY *    N/A      9  -2  61 NW13G21   30.51R WCI  -7
WEBSTER CITY * CLEAR      7   0  72 NW18      30.52S WCI -12
IOWA FALLS *     N/A      8   2  75 NW18      30.51S WCI -10
$$

IAZ007>011-017>019-026>030-037>042-050>054-066-130100-
   NORTHEAST IOWA

CITY           SKY/WX    TMP DP  RH WIND       PRES   REMARKS
CEDAR RAPIDS   CLEAR     12   1  61 NW18G29   30.46R WCI  -6
6HR MIN TEMP:  12; 6HR MAX TEMP:  21;

CHARLES CITY * CLEAR      7  -6  56 NW17G24   30.48R WCI -12
CLINTON *      CLEAR     14   0  53 NW20G28   30.41R WCI  -3
DECORAH *      CLEAR      7  -9  47 N16G22    30.42R WCI -11
DUBUQUE        CLEAR     10  -2  58 NW18G26   30.39R WCI  -8
6HR MIN TEMP:  10; 6HR MAX TEMP:  18;

MONTICELLO *   CLEAR     10   0  61 NW20G26   30.44R WCI  -8
OELWEIN *      CLEAR      7  -2  66 NW16G22   30.46R WCI -11
WATERLOO       CLEAR      9  -3  58 NW20      30.50R WCI -10
6HR MIN TEMP:   9; 6HR MAX TEMP:  15;

$$

IAZ064-065-067-068-078-130100-
   EAST CENTRAL IOWA

CITY           SKY/WX    TMP DP  RH WIND       PRES   REMARKS
DAVENPORT      CLEAR     13   0  56 NW25G32   30.42R WCI  -7
6HR MIN TEMP:  13; 6HR MAX TEMP:  23;

IOWA CITY      CLEAR     15  -1  49 NW15G25   30.49R WCI   0
6HR MIN TEMP:  15; 6HR MAX TEMP:  23;

MT. PLEASANT * CLEAR     19   5  54 NW16G22   30.47R WCI   4
MUSCATINE *    CLEAR     18   0  45 NW16G26   30.48R WCI   3
QUAD CITIES    CLEAR     16   1  51 NW18G24   30.42R WCI   0
6HR MIN TEMP:  16; 6HR MAX TEMP:  26;

$$

IAZ062-063-075>077-085>089-095>099-130100-
   SOUTHEAST IOWA

CITY           SKY/WX    TMP DP  RH WIND       PRES   REMARKS
BURLINGTON     CLEAR     18   2  49 NW15G26   30.44R WCI   4
6HR MIN TEMP:  18; 6HR MAX TEMP:  26;

FAIRFIELD *    PTCLDY    14   3  62 NW20      30.49R WCI  -3
FORT MADISON * CLEAR     18   3  53 NW13G21   30.46R WCI   4
KEOKUK *       CLEAR     19   5  53 NW13G22   30.46R WCI   7
OSKALOOSA *      N/A     13   4  69 NW20G30   30.51R WCI  -5
OTTUMWA        CLEAR     13   4  67 NW21      30.50R WCI  -5
6HR MIN TEMP:  13; 6HR MAX TEMP:  21;

WASHINGTON *   CLEAR     14   1  57 NW18      30.49R WCI  -3
$$

ABBREVIATIONS USED IN REMARKS
   TC - TEMPERATURES IN CELSIUS
  WCI - WIND CHILL INDEX
   HX - HEAT INDEX
  VSB - VISIBILITY
$$




USA.gov is the U.S. government's official web portal to all federal, state and local government web resources and services.